Simultaneous Nadir Overpasses (SNOs) Predictions

Prediction of SNOs between GOES-15 and TERRA Satellite Orbit:

Table of predicted SNOs for the next 14.0 days since TLE Epoch: 6/1/2024
Index Date Time (GOES-15) GOES-15 Lat,Lon TERRA Lat,Lon Distance(km) Time Diff (sec)
1 06/02/2024 05:39:52 -0.18, 61.53 -0.18, 61.64 13.12 80
2 06/04/2024 05:22:31 -0.19, 61.49 -1.12, 65.82 492.04 80
3 06/04/2024 17:45:15 0.17, 61.50 0.05, 60.95 63.10 80
4 06/06/2024 17:25:13 0.19, 61.47 0.95, 65.13 415.61 80
5 06/07/2024 05:47:48 -0.17, 61.45 0.05, 60.29 131.88 80
6 06/09/2024 05:27:45 -0.19, 61.43 -0.81, 64.48 346.34 80
7 06/09/2024 17:50:29 0.17, 61.44 -0.23, 59.60 209.15 80
8 06/11/2024 17:30:26 0.18, 61.42 0.66, 63.79 269.45 80
9 06/12/2024 05:53:01 -0.16, 61.39 0.35, 58.95 277.66 80
10 06/14/2024 05:32:58 -0.18, 61.37 -0.56, 63.14 200.89 80
11 06/14/2024 17:55:41 0.15, 61.39 -0.51, 58.27 354.68 80
